Location: Bartshausen
(51.8454°N, 9.8167°E)
Time: 05:59:50
(UTC+00:00)

Cosmos 2298 Rocket - Pass Details

Date: 08 November 2025
Orbit: 773 x 781 km, 74.0° (Epoch: 11 December)

Event Time Altitude Azimuth Distance (km) Brightness Sun altitude
Exits shadow 03:46:57 72° 282° (WNW) 824 3.9 -24.9°
Maximum altitude 03:47:06 72° 297° (WNW) 822 3.9 -24.9°
Drops below altitude 10° 03:52:26 10° 22° (NNE) 2,348 6.8 -24.1°
Sets 03:54:51 0° 25° (NNE) 3,281 7.6 -23.7°
